"Pseudo-MPEC" for P21Yb5Q

Created 2024 Sep 8 20:22:21 UT using Find_Orb

Click here for an explanation of pseudo-MPECs

 
 Astrometry: 
     P21Yb5Q* C2024 09 07.34742823 01 41.750+24 33 28.49   ~97A7 21.86wXNEOCPF52
     P21Yb5Q  C2024 09 07.36131423 01 43.573+24 34 01.39   ~97A7 21.39wXNEOCPF52
     P21Yb5Q  C2024 09 07.37542023 01 45.352+24 34 34.26   ~97A7 21.04wXNEOCPF52
     P21Yb5Q KC2024 09 07.43408623 01 41.488+24 35 25.26   ~97Aq 21.29GVNEOCPV06
     P21Yb5Q KC2024 09 07.43542923 01 41.689+24 35 27.74   ~97Aq 21.15GVNEOCPV06
     P21Yb5Q KC2024 09 07.43677123 01 41.909+24 35 29.98   ~97Aq 21.70GVNEOCPV06
     P21Yb5Q KC2024 09 07.43811123 01 42.114+24 35 32.24   ~97Aq 21.54GVNEOCPV06
     P21Yb5Q  C2024 09 07.44766823 01 54.206+24 37 13.50   ~97H7 21.07GVNEOCPF52
     P21Yb5Q  C2024 09 07.44832423 01 54.284+24 37 14.80   ~97H7 21.22GVNEOCPF52
     P21Yb5Q 1C2024 09 07.81166 23 03 38.90 +24 48 29.9    ~97K7 21.4 VXNEOCP033
     P21Yb5Q 1C2024 09 07.81417 23 03 39.48 +24 48 37.0    ~97K7 20.5 VXNEOCP033
     P21Yb5Q 1C2024 09 07.81668 23 03 40.06 +24 48 44.3    ~97K7 20.5 VXNEOCP033
     P21Yb5Q 1C2024 09 08.13001 23 04 51.98 +25 02 30.8    ~983b 21.3 VXNEOCP033
     P21Yb5Q 1C2024 09 08.13159 23 04 52.43 +25 02 34.5    ~983b 21.2 VXNEOCP033
     P21Yb5Q 1C2024 09 08.13318 23 04 52.84 +25 02 38.2    ~983b 21.2 VXNEOCP033

Station data:
(033) Karl Schwarzschild Observatory, Tautenburg  (N50.980139 E11.711240)
   Germany.  Observer B. Stecklum. 1.34-m f/3 Schmidt + CCD.
(F52) Pan-STARRS 2, Haleakala  (N20.707382 W156.255910)  US/Hawaii.
   Observers J. Bulger, T. Dukes, T. Lowe, A. Schultz, M. Willman. Measurers
   K. Chambers, S. Chastel, T. de Boer, L. Denneau, J. Fairlamb, H.
   Flewelling, M. Huber, C.-C. Lin, E. Magnier, Y. Ramanjooloo, R. Wainscoat,
   R. Weryk. 1.8-m Ritchey-Chrétien + CCD.
(V06) Catalina Sky Survey-Kuiper  (N32.416871 W110.732550)  US/Arizona.
   Observers T. A. Pruyne, B. M. Africano, E. J. Christensen, G. A. Farneth,
   D. C. Fuls, A. R. Gibbs, A. D. Grauer, H. Gröller, J. A. Johnson, R. A.
   Kowalski, S. M. Larson, G. J. Leonard, D. Rankin, R. L. Seaman, F. C.
   Shelly, K. W. Wierzchoś. 1.55-m reflector + CCD.

Orbital elements:  P21Yb5Q
   Perihelion 2024 Nov 10.72130 +/- 0.0393 TT = 17:18:40 (JD 2460625.22130)
Epoch 2024 Sep  8.0 TT = JDT 2460561.5   Earth MOID: 0.0005   Ve: 0.0984
M 312.93615563 +/- 0.07             (J2000 ecliptic)             AutoNEOCP
n   0.73858888 +/- 0.000684         Peri.  269.32416 +/- 0.023
a   1.21208814 +/- 0.000749         Node   169.62926 +/- 0.008
e   0.4081643 +/- 0.000756          Incl.   11.88732 +/- 0.025
P   1.334/487.407d         H 27.34  G  0.15   U  7.9
q 0.71735698 +/- 0.000482    Q 1.70681931 +/- 0.00197
From 15 observations 2024 Sept. 7-8 (18.9 hr); mean residual 0".11
Residuals in arcseconds: 
240907 F52  .12-  .05-    240907 V06  .04-  .13+    240907 033  .01-  .03-    
240907 F52  .14+  .02+    240907 V06  .23-  .09+    240907 033  .04-  .12+    
240907 F52  .03+  .04+    240907 F52  .01+  .01-    240908 033  .08+  .12+    
240907 V06  .15+  .02+    240907 F52  .03-  .08-    240908 033  .21+  .01-    
240907 V06  .07-  .19+    240907 033  .04+  .03+    240908 033  .26-  .16-    

Ephemerides (geocentric):
Date (UTC) HH   RA             Dec           delta  r     elong  mag " sig PA
---- --------  ------------   ------------  ------ ------ -----  --- --------
2024 09 08 20  23 09 45.572   +25 46 12.62  .02410 1.0280 148.8 20.6 1.02  64
2024 09 08 21  23 10 06.370   +25 49 10.02  .02378 1.0277 148.8 20.6 1.16  63
2024 09 08 22  23 10 27.749   +25 52 11.89  .02346 1.0274 148.8 20.6 1.31  63
2024 09 08 23  23 10 49.732   +25 55 18.39  .02315 1.0271 148.7 20.5 1.47  63
2024 09 09 00  23 11 12.347   +25 58 29.71  .02283 1.0268 148.7 20.5 1.64  62
2024 09 09 01  23 11 35.620   +26 01 46.05  .02251 1.0265 148.6 20.5 1.83  62
2024 09 09 02  23 11 59.580   +26 05 07.61  .02220 1.0263 148.6 20.5 2.03  62
2024 09 09 03  23 12 24.257   +26 08 34.61  .02188 1.0260 148.6 20.4 2.25  62
2024 09 09 04  23 12 49.685   +26 12 07.26  .02156 1.0257 148.5 20.4 2.48  61
2024 09 09 05  23 13 15.897   +26 15 45.81  .02125 1.0254 148.5 20.4 2.74  61
2024 09 09 06  23 13 42.930   +26 19 30.52  .02093 1.0251 148.4 20.3 3.01  61
2024 09 09 07  23 14 10.823   +26 23 21.64  .02062 1.0248 148.4 20.3 3.31  61
2024 09 09 08  23 14 39.617   +26 27 19.47  .02030 1.0245 148.3 20.3 3.62  61
2024 09 09 09  23 15 09.357   +26 31 24.29  .01999 1.0242 148.3 20.2 3.97  61
2024 09 09 10  23 15 40.088   +26 35 36.43  .01967 1.0239 148.2 20.2 4.34  61
2024 09 09 11  23 16 11.862   +26 39 56.21  .01936 1.0236 148.2 20.2 4.74  61
2024 09 09 12  23 16 44.732   +26 44 24.01  .01904 1.0233 148.1 20.1 5.17  61
2024 09 09 13  23 17 18.754   +26 49 00.18  .01873 1.0231 148.0 20.1 5.64  61
2024 09 09 14  23 17 53.989   +26 53 45.13  .01841 1.0228 148.0 20.1 6.14  60
2024 09 09 15  23 18 30.505   +26 58 39.29  .01810 1.0225 147.9 20.0 6.68  60
2024 09 09 16  23 19 08.369   +27 03 43.10  .01778 1.0222 147.8 20.0 7.26  60
2024 09 09 17  23 19 47.659   +27 08 57.06  .01747 1.0219 147.7 20.0 7.89  60
2024 09 09 18  23 20 28.455   +27 14 21.66  .01715 1.0216 147.7 19.9 8.57  60
2024 09 09 19  23 21 10.844   +27 19 57.47  .01684 1.0213 147.6 19.9 9.31  60
2024 09 09 20  23 21 54.921   +27 25 45.05  .01652 1.0210 147.5 19.8 10.1  60
2024 09 09 21  23 22 40.787   +27 31 45.04  .01621 1.0207 147.4 19.8 11.0  61
2024 09 09 22  23 23 28.553   +27 37 58.10  .01590 1.0204 147.3 19.8 11.9  61
2024 09 09 23  23 24 18.337   +27 44 24.95  .01558 1.0201 147.2 19.7 12.9  61
2024 09 10 00  23 25 10.269   +27 51 06.34  .01527 1.0198 147.1 19.7 14.0  61
2024 09 10 01  23 26 04.488   +27 58 03.10  .01496 1.0196 147.0 19.6 15.2  61
2024 09 10 02  23 27 01.148   +28 05 16.10  .01465 1.0193 146.8 19.6 16.4  61
2024 09 10 03  23 28 00.414   +28 12 46.29  .01433 1.0190 146.7 19.5 17.8  61
2024 09 10 04  23 29 02.469   +28 20 34.69  .01402 1.0187 146.6 19.5 19.3  61
2024 09 10 05  23 30 07.510   +28 28 42.38  .01371 1.0184 146.4 19.5 21.0  61
2024 09 10 06  23 31 15.756   +28 37 10.54  .01340 1.0181 146.3 19.4 22.8  61
2024 09 10 07  23 32 27.445   +28 46 00.43  .01309 1.0178 146.1 19.4 24.7  61
2024 09 10 08  23 33 42.841   +28 55 13.43  .01278 1.0175 145.9 19.3 26.9  61
2024 09 10 09  23 35 02.232   +29 04 51.00  .01247 1.0172 145.8 19.3 29.2  62
2024 09 10 10  23 36 25.941   +29 14 54.73  .01216 1.0169 145.6 19.2 31.7  62
2024 09 10 11  23 37 54.321   +29 25 26.36  .01185 1.0166 145.4 19.2 34.5  62
2024 09 10 12  23 39 27.766   +29 36 27.73  .01154 1.0164 145.1 19.1 37.6  62
2024 09 10 13  23 41 06.717   +29 48 00.85  .01123 1.0161 144.9 19.1 41.0  62
2024 09 10 14  23 42 51.661   +30 00 07.91  .01092 1.0158 144.7 19.0 44.7  62
2024 09 10 15  23 44 43.148   +30 12 51.26  .01062 1.0155 144.4 19.0 48.8  63
2024 09 10 16  23 46 41.793   +30 26 13.42  .01031 1.0152 144.1 18.9 53.4  63
2024 09 10 17  23 48 48.288   +30 40 17.16  .01000 1.0149 143.8 18.8 58.4  63
2024 09 10 18  23 51 03.416   +30 55 05.41  .00970 1.0146 143.5 18.8 64.0  63
2024 09 10 19  23 53 28.062   +31 10 41.37  .00940 1.0143 143.1 18.7 70.2  64